| time (UTC) | temp F | wind direction | speed MPH | gust MPH | rain 1hr in | rain 24hr in | rain mn in | humidity % | barometer mb |
| 20260505013703 | 72 | 310 | 1.0 | 4.0 | 0.02 | 0.20 | 0.06 | 90 | 1005.1 |
| 20260505012703 | 72 | 260 | 3.0 | 4.0 | 0.02 | 0.20 | 0.06 | 88 | 1005.3 |
| 20260505011703 | 72 | 0 | 0.0 | 4.0 | 0.02 | 0.20 | 0.06 | 89 | 1005.1 |
| 20260505010704 | 72 | 0 | 0.0 | 6.0 | 0.00 | 0.18 | 0.04 | 87 | 1005.1 |
| 20260505005704 | 72 | 0 | 0.0 | 6.0 | 0.00 | 0.18 | 0.04 | 89 | 1005.1 |
| 20260505004703 | 71 | 0 | 0.0 | 6.0 | 0.00 | 0.18 | 0.04 | 90 | 1004.9 |
| 20260505003708 | 72 | 0 | 0.0 | 6.0 | 0.00 | 0.18 | 0.04 | 90 | 1004.9 |
| 20260505002704 | 71 | 30 | 1.0 | 6.0 | 0.00 | 0.18 | 0.04 | 90 | 1004.9 |
| 20260505001705 | 71 | 20 | 2.0 | 6.0 | 0.00 | 0.18 | 0.04 | 89 | 1004.9 |
| 20260505000704 | 71 | 350 | 1.0 | 8.0 | 0.00 | 0.18 | 0.04 | 90 | 1004.9 |
| 20260504235704 | 71 | 320 | 2.0 | 8.0 | 0.00 | 0.18 | 0.04 | 89 | 1004.9 |
| 20260504234703 | 71 | 330 | 2.0 | 8.0 | 0.00 | 0.18 | 0.04 | 89 | 1004.8 |
| 20260504233703 | 71 | 340 | 2.0 | 8.0 | 0.00 | 0.18 | 0.04 | 90 | 1004.6 |
| 20260504232704 | 71 | 340 | 1.0 | 8.0 | 0.00 | 0.18 | 0.04 | 91 | 1004.7 |
| 20260504231704 | 71 | 0 | 2.0 | 8.0 | 0.00 | 0.18 | 0.04 | 92 | 1004.6 |
| 20260504230704 | 71 | 0 | 0.0 | 6.0 | 0.00 | 0.18 | 0.04 | 92 | 1004.4 |
| 20260504225704 | 71 | 330 | 1.0 | 6.0 | 0.00 | 0.18 | 0.04 | 91 | 1004.4 |
| 20260504224703 | 71 | 340 | 3.0 | 6.0 | 0.00 | 0.18 | 0.04 | 91 | 1004.3 |
| 20260504223704 | 71 | 320 | 1.0 | 6.0 | 0.00 | 0.18 | 0.04 | 90 | 1004.3 |
| 20260504222705 | 71 | 330 | 2.0 | 6.0 | 0.00 | 0.18 | 0.04 | 90 | 1004.2 |
| 20260504221704 | 71 | 330 | 2.0 | 6.0 | 0.00 | 0.18 | 0.04 | 90 | 1004.2 |
| 20260504220704 | 71 | 330 | 2.0 | 5.0 | 0.00 | 0.18 | 0.04 | 93 | 1004.0 |
| 20260504215703 | 72 | 0 | 0.0 | 5.0 | 0.00 | 0.18 | 0.04 | 94 | 1003.9 |
| 20260504214704 | 72 | 0 | 0.0 | 5.0 | 0.00 | 0.18 | 0.04 | 93 | 1003.8 |
| 20260504213703 | 72 | 240 | 1.0 | 5.0 | 0.00 | 0.18 | 0.04 | 92 | 1003.9 |
| 20260504212703 | 72 | 230 | 1.0 | 5.0 | 0.00 | 0.18 | 0.04 | 92 | 1003.8 |
| 20260504211704 | 72 | 200 | 2.0 | 5.0 | 0.00 | 0.18 | 0.04 | 92 | 1003.8 |
| 20260504210703 | 71 | 250 | 2.0 | 3.0 | 0.00 | 0.18 | 0.04 | 93 | 1003.8 |
| 20260504205703 | 72 | 0 | 0.0 | 3.0 | 0.00 | 0.18 | 0.04 | 94 | 1003.7 |
| 20260504204703 | 71 | 220 | 1.0 | 3.0 | 0.00 | 0.18 | 0.04 | 95 | 1003.6 |
| 20260504203704 | 71 | 230 | 1.0 | 3.0 | 0.00 | 0.18 | 0.04 | 95 | 1003.5 |
| 20260504202703 | 71 | 0 | 0.0 | 3.0 | 0.00 | 0.18 | 0.04 | 95 | 1003.4 |
| 20260504201703 | 71 | 0 | 0.0 | 3.0 | 0.00 | 0.18 | 0.04 | 95 | 1003.3 |
| 20260504200704 | 71 | 0 | 0.0 | 4.0 | 0.00 | 0.18 | 0.04 | 95 | 1003.3 |
| 20260504195703 | 71 | 0 | 0.0 | 4.0 | 0.00 | 0.18 | 0.04 | 95 | 1003.4 |
| 20260504194703 | 71 | 0 | 0.0 | 4.0 | 0.00 | 0.18 | 0.04 | 95 | 1003.3 |
| 20260504193704 | 71 | 210 | 1.0 | 4.0 | 0.00 | 0.18 | 0.04 | 95 | 1003.4 |
| 20260504192704 | 71 | 0 | 0.0 | 4.0 | 0.00 | 0.18 | 0.04 | 95 | 1003.3 |
| 20260504191703 | 71 | 230 | 2.0 | 4.0 | 0.00 | 0.18 | 0.04 | 96 | 1003.3 |
| 20260504190703 | 71 | 240 | 1.0 | 4.0 | 0.00 | 0.18 | 0.04 | 96 | 1003.3 |
| 20260504185704 | 71 | 0 | 0.0 | 4.0 | 0.00 | 0.18 | 0.04 | 96 | 1003.3 |
| 20260504184703 | 71 | 170 | 1.0 | 4.0 | 0.00 | 0.18 | 0.04 | 96 | 1003.2 |
| 20260504183703 | 71 | 160 | 1.0 | 4.0 | 0.02 | 0.18 | 0.04 | 95 | 1003.2 |
| 20260504182704 | 71 | 0 | 0.0 | 4.0 | 0.02 | 0.18 | 0.04 | 96 | 1003.5 |
| 20260504181703 | 71 | 0 | 0.0 | 4.0 | 0.02 | 0.18 | 0.04 | 96 | 1003.6 |
| 20260504180703 | 71 | 0 | 0.0 | 2.0 | 0.02 | 0.18 | 0.04 | 96 | 1003.6 |
| 20260504175703 | 71 | 160 | 1.0 | 2.0 | 0.02 | 0.18 | 0.04 | 96 | 1003.6 |
| 20260504174704 | 71 | 0 | 0.0 | 2.0 | 0.02 | 0.18 | 0.04 | 95 | 1003.8 |
| 20260504173706 | 70 | 0 | 0.0 | 2.0 | 0.00 | 0.16 | 0.02 | 96 | 1004.0 |
| 20260504172703 | 70 | 0 | 0.0 | 2.0 | 0.00 | 0.16 | 0.02 | 95 | 1003.9 |
| 20260504171705 | 70 | 0 | 0.0 | 2.0 | 0.02 | 0.16 | 0.02 | 95 | 1004.1 |
| 20260504170703 | 70 | 0 | 0.0 | 8.0 | 0.02 | 0.16 | 0.02 | 95 | 1004.2 |
| 20260504150704 | 71 | 270 | 1.0 | 5.0 | 0.00 | 0.14 | 0.14 | 92 | 1005.1 |
| 20260504140703 | 72 | 330 | 1.0 | 12.0 | 0.00 | 0.14 | 0.14 | 92 | 1004.7 |
| 20260504130703 | 70 | 0 | 0.0 | 9.0 | 0.02 | 0.14 | 0.14 | 95 | 1004.6 |
| 20260504110703 | 71 | 340 | 2.0 | 12.0 | 0.06 | 0.10 | 0.10 | 89 | 1004.7 |
| 20260504081704 | 79 | 350 | 4.0 | 11.0 | 0.00 | 0.00 | 0.00 | 54 | 1002.7 |
| 20260504080703 | 79 | 330 | 3.0 | 13.0 | 0.00 | 0.00 | 0.00 | 53 | 1002.6 |
| 20260504050704 | 82 | 320 | 5.0 | 18.0 | 0.00 | 0.00 | 0.00 | 51 | 1003.4 |
| 20260504045704 | 82 | 340 | 4.0 | 18.0 | 0.00 | 0.00 | 0.00 | 52 | 1003.5 |
| 20260504044704 | 82 | 350 | 5.0 | 18.0 | 0.00 | 0.00 | 0.00 | 52 | 1003.6 |
| 20260504043704 | 82 | 0 | 5.0 | 18.0 | 0.00 | 0.00 | 0.00 | 51 | 1003.5 |
| 20260504042704 | 81 | 0 | 8.0 | 18.0 | 0.00 | 0.00 | 0.00 | 55 | 1003.7 |
| 20260504041703 | 81 | 350 | 4.0 | 18.0 | 0.00 | 0.00 | 0.00 | 55 | 1003.7 |
| 20260504040703 | 80 | 350 | 7.0 | 18.0 | 0.00 | 0.00 | 0.00 | 54 | 1003.7 |
| 20260504035703 | 80 | 350 | 8.0 | 18.0 | 0.00 | 0.00 | 0.00 | 60 | 1003.9 |
| 20260504034704 | 79 | 350 | 8.0 | 18.0 | 0.00 | 0.00 | 0.00 | 59 | 1004.1 |
| 20260504033703 | 79 | 10 | 7.0 | 18.0 | 0.00 | 0.00 | 0.00 | 60 | 1004.0 |
| 20260504032704 | 78 | 10 | 7.0 | 18.0 | 0.00 | 0.00 | 0.00 | 60 | 1003.9 |
| 20260504031704 | 77 | 0 | 6.0 | 18.0 | 0.00 | 0.00 | 0.00 | 62 | 1004.2 |
| 20260504030703 | 77 | 10 | 6.0 | 22.0 | 0.00 | 0.00 | 0.00 | 63 | 1004.3 |
| 20260504025703 | 76 | 0 | 6.0 | 22.0 | 0.00 | 0.00 | 0.00 | 65 | 1004.2 |
| 20260504024703 | 76 | 0 | 6.0 | 22.0 | 0.00 | 0.00 | 0.00 | 65 | 1004.0 |
| 20260504023704 | 75 | 350 | 8.0 | 22.0 | 0.00 | 0.00 | 0.00 | 66 | 1003.8 |
| 20260504022704 | 76 | 0 | 6.0 | 22.0 | 0.00 | 0.00 | 0.00 | 65 | 1003.7 |
| 20260504021703 | 76 | 10 | 11.0 | 22.0 | 0.00 | 0.00 | 0.00 | 65 | 1003.7 |
| 20260504020704 | 77 | 0 | 9.0 | 17.0 | 0.00 | 0.00 | 0.00 | 64 | 1003.9 |
| 20260504015703 | 79 | 10 | 6.0 | 17.0 | 0.00 | 0.00 | 0.00 | 62 | 1003.8 |
| 20260504014703 | 78 | 0 | 7.0 | 17.0 | 0.00 | 0.00 | 0.00 | 63 | 1004.1 |